[Iaude] MPEC N117: 2024 JQ3 [a=2.79,e=0.61,i=8.8,H=18.81]
    mpec at cfa.harvard.edu 
    mpec at cfa.harvard.edu
       
    Tue Jul  9 10:25:33 EDT 2024
    
    
  
M.P.E.C. 2024-N117                                 Issued 2024 July 9, 14:24 UT
     The Minor Planet Electronic Circulars contain information on unusual
         minor planets, routine data on comets and natural satellites,
         and occasional editorial announcements.  They are published
    on behalf of Division F of the International Astronomical Union by the
          Minor Planet Center, Smithsonian Astrophysical Observatory,
                          Cambridge, MA 02138, U.S.A.
			  
             Prepared using the Tamkin Foundation Computer Network
                              MPC at CFA.HARVARD.EDU
            URL https://www.minorplanetcenter.net/    ISSN 1523-6714
                                    2024 JQ3                                    
                           Revision to MPEC 2024-J154                           
Additional Observations:
     K24J03Q 1C2015 12 08.38939 05 47 13.79 +07 53 06.5          20.8 GVEN117G96
     K24J03Q 1C2015 12 08.39552 05 47 13.22 +07 53 06.3          21.1 GVEN117G96
     K24J03Q  C2016 01 13.38099 05 09 02.644+09 04 31.59         22.1 wLEN117F51
     K24J03Q  C2016 01 13.40657 05 09 01.835+09 04 38.49         21.8 wLEN117F51
     K24J03Q  C2016 01 13.41927 05 09 01.430+09 04 41.79         21.8 wLEN117F51
Observer details:
F51 Pan-STARRS 1, Haleakala.  Observers B. Gibson, T. Goggia, N. Primak, A.
    Schultz, M. Willman.  Measurers K. Chambers, S. Chastel, L. Denneau, H.
    Flewelling, M. Huber, E. Lilly, E. Magnier, R. Wainscoat, C. Waters, R.
    Weryk.  1.8-m Ritchey-Chretien + CCD.
G96 Mt. Lemmon Survey.  Observer D. C. Fuls.  Measurers B. Gray, D. Rankin, F.
    C. Shelly.  1.5-m reflector + CCD.
First and last observations above in comparison with prediction:
Residuals in seconds of arc (or two decimals in degrees), reference and Delta-T
151208 G96 0.43+ 0.03+    160113 F51 0.34+ 0.02+    MPO825900   +0.36 days
Orbital elements:
2024 JQ3                                                 Earth MOID = 0.1200 AU
Epoch 2024 Mar. 31.0 TT = JDT 2460400.5                 Veres                   
M 315.53322              (2000.0)            P               Q                  
n   0.21195472     Peri.  144.86873     +0.93820755     +0.34377321             
a   2.7859543      Node   195.17637     -0.34201375     +0.90346366             
e   0.6058241      Incl.    8.75162     -0.05285063     +0.25607302             
P   4.65           H   18.81          G   0.15           U   1                  
Residuals in seconds of arc
151208 G96  0.1+  0.3-    240508 H21  0.2-  0.3-    240531 G96  0.3+  0.1+
151208 G96  0.2-  0.0     240508 H21  0.4-  0.2-    240531 F51  0.1-  0.1+
160113 F51  0.2+  0.1-    240509 F51  0.0   0.0     240531 F51  0.1-  0.1+
160113 F51  0.0   0.1+    240509 F51  0.1+  0.0     240531 F51  0.1+  0.1-
160113 F51  0.1-  0.1+    240509 F51  0.0   0.0     240607 807  0.1-  0.4-
240419 F51  0.2-  0.1-    240509 F51  0.0   0.0     240607 807  0.2-  0.0
240419 F51  0.1+  0.3-    240515 I52  0.3+  0.4-    240607 807  0.3-  0.3-
240419 F51  0.3+  0.4-    240515 I52  0.1+  0.1+    240609 F51  0.0   0.2+
240419 F51  0.1-  0.0     240515 I52  0.3-  0.2-    240609 F51  0.1-  0.0
240420 F51  0.0   0.0     240515 I52  0.2+  0.3+    240609 F51  0.0   0.0
240420 F51  0.3-  0.2+    240519 I52  0.2+  0.2+    240609 F51  0.1+  0.0
240501 F51  0.0   0.2+    240519 I52  0.5-  0.1+    240614 691  0.5-  0.1+
240501 F51  0.1-  0.1-    240519 I52  0.1-  0.3+    240614 691  0.2-  0.2-
240501 F51  0.2+  0.1+    240519 I52  0.5+  0.3+    240614 691  0.1+  0.3+
240501 F51  0.0   0.1+    240530 I52  0.5-  0.8-    240701 807  0.4+  0.0
240507 F51  0.0   0.1-    240530 I52  0.0   0.2-    240701 807  0.2+  0.2-
240507 F51  0.0   0.1-    240530 I52  0.2-  0.0     240701 807  0.0   0.3-
240507 F51  0.0   0.1-    240530 I52  0.5+  0.1+    240701 F51  0.0   0.1-
240508 H21  0.2-  0.3-    240531 G96  0.4-  0.5-    240701 F51  0.1-  0.1+
240508 H21  0.1-  0.3-    240531 G96  0.3-  0.1+    240701 F51  0.0   0.1+
240508 H21  0.1-  0.0     240531 G96  0.2+  0.3+
Ephemeris:
2024 JQ3                 a,e,i = 2.79, 0.61, 9                   q = 1.0982
Date    TT    R. A. (2000) Decl.     Delta      r    Elong.  Phase     V
2024 06 09    15 01 28.2 -04 29 05   1.0147  1.9308   144.1    18.0    21.2
...
2024 06 24    14 48 39.2 -03 09 52   1.0101  1.8137   127.0    26.6    21.3
...
2024 07 02    14 45 11.7 -02 54 09   1.0180  1.7509   118.7    30.6    21.4
...
2024 07 08    14 44 21.0 -02 54 29   1.0265  1.7038   113.0    33.3    21.4
2024 07 09    14 44 21.6 -02 55 31   1.0280  1.6960   112.1    33.7    21.4
2024 07 10    14 44 24.7 -02 56 49   1.0296  1.6882   111.2    34.2    21.4
...
2024 07 16    14 45 37.4 -03 10 05   1.0392  1.6413   106.0    36.5    21.5
...
2024 07 24    14 49 35.7 -03 41 09   1.0514  1.5794    99.6    39.4    21.5
...
2024 08 08    15 04 01.8 -05 14 25   1.0678  1.4659    89.5    43.8    21.5
A. U. Tomatic                (C) Copyright 2024 MPC           M.P.E.C. 2024-N117
    
    
More information about the Iaude
mailing list